Tracking 23757 objects as of 26-Oct-2021
HD Live streaming from Space Station
objects crossing your sky now

USA 122

Track USA 122 now!
10-day predictions
USA 122 is classified as:


NORAD ID: 23862
Int'l Code: 1996-029D
Perigee: 554.8 km
Apogee: 1,671.0 km
Inclination: 63.3 °
Period: 107.4 minutes
Semi major axis: 7483 km
RCS: Unknown
Launch date: May 12, 1996
Source: United States (US)
Launch site: AIR FORCE WESTERN TEST RANGE (AFWTR)
aabbcc
Your satellite tracking list
Your tracking list is empty




NASA's NSSDC Master Catalog

Two Line Element Set (TLE):
1 23862U 96029D   21297.74976337 0.00000100  00000-0  32947-4 0    07
2 23862  63.3438 278.4108 0745770  27.1053 332.7909 13.40947719    06
Source of the keplerian elements: McCants